[[{"header":{"parameterUnit":"m.s-1","parameterCategory":1,"la1":30.2992,"la2":30.254,"lo1":-89.0895,"lo2":-89.0443,"dy":0.0025,"dx":0.0025,"nx":19,"ny":19,"refTime":"2026-04-08T03:00:00:Z","depth":0,"parameterNumber":2,"parameterNumberName":"U-component_of_WINDS"},"data":[0,0,0,-6.8234,-6.8237,-6.8316,-6.8316,-6.8462,-6.8464,0,0,0,0,0,0,0,0,0,0,0,-6.8236,-6.8237,-6.8234,-6.8237,-6.8316,-6.8316,-6.8462,-6.8464,0,0,0,0,0,0,0,0,0,0,0,-6.8235,-6.8237,-6.8239,-6.8237,-6.8316,-6.8316,-6.8462,-6.8386,0,0,0,0,0,0,0,0,0,0,-6.8302,-6.8326,-6.8236,-6.8239,-6.8238,-6.8316,-6.8316,-6.8382,-6.8391,-6.8445,0,-6.8497,0,-6.8483,-6.8476,-6.8477,0,0,0,-6.8219,-6.8319,-6.8318,-6.824,-6.8239,-6.8316,-6.8275,-6.8387,-6.8397,-6.8457,-6.8499,-6.8503,-6.8486,-6.8478,-6.8479,-6.8844,-6.8847,0,0,-6.8214,-6.8264,-6.8311,-6.8326,-6.8314,-6.8273,-6.8278,-6.8392,-6.8442,-6.8499,-6.8506,-6.8488,-6.8479,-6.848,-6.8842,-6.8845,0,0,0,-6.8214,-6.8262,-6.8256,-6.8321,-6.8332,-6.8276,-6.8282,-6.8437,-6.8431,-6.8507,-6.849,-6.848,-6.8482,-6.8839,-6.8843,-6.9017,0,0,0,-6.821,-6.8261,-6.8255,-6.8287,-6.8331,-6.8385,-6.8324,-6.8423,-6.8434,-6.8489,-6.848,-6.8484,-6.8836,-6.8841,-6.9006,-6.9091,0,0,0,-6.8222,-6.8262,-6.8282,-6.8289,-6.8325,-6.8382,-6.8382,-6.8424,-6.8425,-6.8477,-6.8485,-6.8834,-6.884,-6.8996,-6.9075,-6.9203,0,0,0,-6.8249,-6.8435,-6.8285,-6.8487,-6.8325,-6.8488,-6.8381,-6.85,-6.8566,-6.8481,-6.8836,-6.8842,-6.8993,-6.9065,-6.9192,-6.9319,-6.9376,0,0,-6.8512,-6.8469,-6.8584,-6.8452,-6.8655,-6.8472,-6.8701,-6.8715,-6.8676,-6.8791,-6.8799,-6.9009,-6.9074,-6.92,-6.9678,-6.9724,0,0,0,-6.8684,-6.8767,-6.881,-6.8875,-6.8889,-6.891,-6.8883,-6.8889,-6.8984,-6.8745,-6.9088,-6.9125,-6.9197,-6.9255,-6.9294,-6.9354,-6.8871,-6.8871,-6.887,-6.9127,-6.9066,-6.9253,-6.9202,-6.9266,-6.9238,-6.9285,-6.9287,-6.9207,-6.929,-6.9324,-6.9621,-6.9691,-6.972,-6.9783,-6.9385,-6.9386,-6.9386,-6.9387,-6.9508,-6.9616,-6.9506,-6.9647,-6.9583,-6.9702,-6.9682,-6.9622,-6.9725,-6.959,-6.965,-6.9509,-6.9772,-6.9824,-6.9399,-6.9397,-6.9395,-6.9394,-6.9393,-6.9792,-6.9833,-6.9836,-6.9924,-6.9999,-6.9941,-7.0045,-6.9982,-6.9924,-6.9984,-7.0014,-7.0011,-7.0001,-7.0003,-7.0004,-7.0005,-7.0006,-7.0006,-7.0007,-7.0086,-7.0083,-7.0177,-7.021,-7.0243,-7.028,-7.0255,-7.0287,-7.0307,-7.0253,-7.0253,-7.0167,-6.9808,-6.972,-7.0023,-7.002,-7.0018,-7.0016,-7.0015,-7.0495,-7.0393,-7.0538,-7.0573,-7.0606,-7.0686,-7.0604,-7.0676,-7.0694,-7.0748,-7.0648,-7.0393,-7.0345,-7.0313,-7.024,-7.0659,-7.0659,-7.0659,-7.0659,-7.0736,-7.0705,-7.084,-7.0899,-7.095,-7.0891,-7.1061,-7.1044,-7.101,-7.1018,-7.0948,-7.0845,-7.0816,-7.0786,-7.0744,-7.0675,-7.1195,-7.1196,-7.1196,-7.0985,-7.0956,-7.1111,-7.1076,-7.1098,-7.1119,-7.1277,-7.1351,-7.1292,-7.1216,-7.1023,-7.1001,-7.0834,-7.0782,-7.0704,-7.064,-7.0512,0,0]},{"header":{"parameterUnit":"m.s-1","parameterCategory":1,"la1":30.2992,"la2":30.254,"lo1":-89.0895,"lo2":-89.0443,"dy":0.0025,"dx":0.0025,"nx":19,"ny":19,"refTime":"2026-04-08T03:00:00:Z","depth":0,"parameterNumber":3,"parameterNumberName":"V-component_of_WINDS"},"data":[0,0,0,0.879,0.8789,0.8784,0.8784,0.8761,0.8761,0,0,0,0,0,0,0,0,0,0,0,0.8782,0.8782,0.879,0.8789,0.8784,0.8784,0.8761,0.8761,0,0,0,0,0,0,0,0,0,0,0,0.8782,0.8782,0.8781,0.8789,0.8784,0.8784,0.8761,0.8771,0,0,0,0,0,0,0,0,0,0,0.8778,0.8763,0.8782,0.8781,0.8789,0.8784,0.8784,0.8771,0.877,0.8757,0,0.8744,0,0.8752,0.8758,0.8758,0,0,0,0.8795,0.8764,0.8771,0.8781,0.8789,0.8784,0.8788,0.8771,0.8769,0.8755,0.8743,0.8743,0.8752,0.8758,0.8758,0.8665,0.8664,0,0,0.8796,0.8776,0.8772,0.877,0.8771,0.8788,0.8788,0.877,0.8756,0.8743,0.8743,0.8751,0.8758,0.8758,0.8666,0.8665,0,0,0,0.8792,0.8776,0.8784,0.877,0.8771,0.8788,0.8788,0.8756,0.8761,0.8743,0.8751,0.8758,0.8757,0.8667,0.8666,0.8611,0,0,0,0.8793,0.8774,0.8783,0.8771,0.8771,0.8764,0.8774,0.8762,0.8761,0.8751,0.8758,0.8757,0.8668,0.8666,0.8614,0.8587,0,0,0,0.8785,0.8773,0.877,0.877,0.8767,0.8764,0.8768,0.8762,0.8765,0.8758,0.8757,0.8668,0.8666,0.8617,0.8592,0.8557,0,0,0,0.8771,0.8719,0.8768,0.8714,0.8767,0.8732,0.8768,0.8742,0.873,0.8757,0.8667,0.8666,0.8618,0.8595,0.856,0.8522,0.8505,0,0,0.8694,0.8709,0.8678,0.8723,0.8673,0.8734,0.8676,0.8682,0.8699,0.8675,0.8673,0.8613,0.8592,0.8557,0.8421,0.8407,0,0,0,0.8647,0.8625,0.8616,0.8605,0.861,0.8612,0.8631,0.8634,0.8615,0.8683,0.8592,0.858,0.8561,0.8544,0.8532,0.8516,0.8657,0.8658,0.8658,0.8506,0.8534,0.8485,0.8512,0.8501,0.8522,0.8514,0.8522,0.855,0.8529,0.8521,0.8435,0.8414,0.8406,0.8389,0.8505,0.8505,0.8505,0.8504,0.8394,0.8367,0.841,0.8379,0.8408,0.8381,0.84,0.8422,0.8401,0.8442,0.8426,0.8467,0.839,0.8377,0.8501,0.8501,0.8502,0.8502,0.8502,0.8303,0.8295,0.8302,0.829,0.8278,0.8308,0.8287,0.8314,0.8339,0.8323,0.8318,0.8319,0.8322,0.832,0.8319,0.8319,0.8319,0.8318,0.8318,0.8206,0.8215,0.8195,0.8199,0.8197,0.8197,0.8221,0.8219,0.8223,0.8244,0.8244,0.8275,0.8379,0.8403,0.8314,0.8314,0.8315,0.8315,0.8316,0.8078,0.8113,0.8081,0.8079,0.8087,0.8074,0.8111,0.8105,0.8107,0.8096,0.8132,0.8205,0.8221,0.823,0.8251,0.8127,0.8127,0.8127,0.8127,0.8,0.8013,0.7988,0.7983,0.7981,0.8013,0.7976,0.7995,0.8019,0.8022,0.8045,0.8075,0.8084,0.8095,0.8107,0.8126,0.7974,0.7974,0.7973,0.7923,0.7938,0.7901,0.7928,0.7938,0.7945,0.7912,0.7904,0.7938,0.7968,0.8025,0.8032,0.8081,0.8096,0.8122,0.8141,0.8177,0,0]}]]